| time (UTC) | temp F | wind direction | speed knots | gust knots | rain 1hr in | rain 24hr in | rain mn in | humidity % | barometer mb |
| 20260504201510 | 56 | 173 | 2.6 | 7.0 | 0.02 | 0.27 | 0.27 | 89 | 1010.7 |
| 20260504200016 | 55 | 201 | 5.2 | 9.6 | 0.07 | 0.27 | 0.27 | 89 | 1010.5 |
| 20260504194520 | 55 | 201 | 5.2 | 9.6 | 0.10 | 0.27 | 0.27 | 90 | 1010.4 |
| 20260504193026 | 55 | 224 | 5.2 | 10.4 | 0.10 | 0.27 | 0.27 | 91 | 1010.5 |
| 20260504191529 | 55 | 243 | 6.1 | 13.0 | 0.08 | 0.25 | 0.25 | 90 | 1010.6 |
| 20260504190016 | 56 | 208 | 6.1 | 10.4 | 0.03 | 0.20 | 0.20 | 89 | 1010.7 |
| 20260504184518 | 57 | 202 | 4.3 | 12.2 | 0.00 | 0.17 | 0.17 | 85 | 1010.9 |
| 20260504183022 | 58 | 182 | 2.6 | 7.0 | 0.00 | 0.17 | 0.17 | 81 | 1010.8 |
| 20260504181528 | 59 | 176 | 4.3 | 11.3 | 0.00 | 0.17 | 0.17 | 78 | 1010.2 |
| 20260504180029 | 59 | 132 | 5.2 | 10.4 | 0.00 | 0.17 | 0.17 | 78 | 1010.0 |
| 20260504174520 | 60 | 143 | 6.1 | 11.3 | 0.00 | 0.17 | 0.17 | 78 | 1010.2 |
| 20260504173023 | 60 | 107 | 6.1 | 12.2 | 0.00 | 0.17 | 0.17 | 78 | 1010.2 |
| 20260504171526 | 60 | 76 | 6.1 | 12.2 | 0.00 | 0.17 | 0.17 | 79 | 1010.1 |
| 20260504081526 | 53 | 115 | 1.7 | 6.1 | 0.00 | 0.27 | 0.17 | 92 | 1013.0 |
| 20260504050004 | 50 | 110 | 1.7 | 5.2 | 0.03 | 0.26 | 0.15 | 93 | 1012.8 |
| 20260504044506 | 50 | 91 | 1.7 | 3.5 | 0.04 | 0.26 | 0.15 | 93 | 1012.8 |
| 20260504043021 | 50 | 91 | 0.9 | 3.5 | 0.05 | 0.25 | 0.14 | 93 | 1012.8 |
| 20260504041515 | 50 | 134 | 0.9 | 2.6 | 0.06 | 0.24 | 0.13 | 93 | 1012.8 |
| 20260504040025 | 50 | 134 | 0.9 | 2.6 | 0.06 | 0.23 | 0.12 | 92 | 1012.9 |
| 20260504034508 | 50 | 134 | 0.9 | 3.5 | 0.07 | 0.22 | 0.11 | 92 | 1013.1 |
| 20260504033014 | 50 | 134 | 1.7 | 3.5 | 0.06 | 0.20 | 0.09 | 91 | 1013.2 |
| 20260504031518 | 50 | 134 | 0.9 | 2.6 | 0.06 | 0.18 | 0.07 | 90 | 1013.4 |
| 20260504030019 | 51 | 134 | 0.9 | 2.6 | 0.06 | 0.17 | 0.06 | 89 | 1013.4 |
| 20260504024525 | 52 | 214 | 0.9 | 3.5 | 0.04 | 0.15 | 0.04 | 86 | 1013.5 |
| 20260504023008 | 52 | 207 | 0.9 | 4.3 | 0.03 | 0.14 | 0.03 | 84 | 1013.4 |
| 20260504021514 | 53 | 212 | 3.5 | 10.4 | 0.01 | 0.12 | 0.01 | 79 | 1013.4 |
| 20260504020018 | 55 | 198 | 5.2 | 9.6 | 0.00 | 0.11 | 0.00 | 73 | 1013.4 |
| 20260504014519 | 56 | 222 | 1.7 | 4.3 | 0.00 | 0.11 | 0.00 | 68 | 1013.3 |
| 20260504013024 | 56 | 197 | 0.9 | 4.3 | 0.00 | 0.11 | 0.00 | 66 | 1013.2 |
| 20260504011506 | 57 | 195 | 2.6 | 13.0 | 0.00 | 0.11 | 0.00 | 63 | 1013.2 |
| 20260504010012 | 57 | 172 | 7.0 | 11.3 | 0.00 | 0.11 | 0.00 | 62 | 1013.4 |
| 20260504004520 | 57 | 169 | 6.1 | 11.3 | 0.00 | 0.11 | 0.00 | 63 | 1013.4 |
| 20260504003023 | 57 | 128 | 4.3 | 8.7 | 0.00 | 0.11 | 0.00 | 64 | 1013.4 |
| 20260504001525 | 57 | 160 | 2.6 | 7.0 | 0.00 | 0.11 | 0.00 | 66 | 1013.5 |
| 20260504000012 | 56 | 213 | 3.5 | 8.7 | 0.00 | 0.11 | 0.00 | 68 | 1013.5 |
| 20260503234520 | 53 | 162 | 0.0 | 3.5 | 0.00 | 0.11 | 0.00 | 81 | 1013.8 |
| 20260503233021 | 52 | 91 | 0.0 | 1.7 | 0.00 | 0.11 | 0.00 | 87 | 1013.8 |
| 20260503231524 | 52 | 63 | 0.9 | 2.6 | 0.00 | 0.11 | 0.00 | 89 | 1013.8 |
| 20260503230028 | 53 | 122 | 0.9 | 2.6 | 0.00 | 0.11 | 0.00 | 87 | 1013.9 |
| 20260503224513 | 53 | 61 | 0.0 | 2.6 | 0.00 | 0.11 | 0.00 | 86 | 1013.9 |
| 20260503223003 | 53 | 69 | 1.7 | 3.5 | 0.00 | 0.11 | 0.00 | 86 | 1014.1 |
| 20260503221506 | 53 | 82 | 1.7 | 3.5 | 0.00 | 0.11 | 0.00 | 85 | 1014.0 |
| 20260503220003 | 54 | 4 | 0.0 | 0.0 | 0.00 | 0.11 | 0.00 | 84 | 1013.9 |
| 20260503214513 | 55 | 4 | 0.0 | 0.0 | 0.00 | 0.11 | 0.11 | 81 | 1014.0 |
| 20260503213005 | 56 | 4 | 0.0 | 0.9 | 0.00 | 0.11 | 0.11 | 79 | 1014.0 |
| 20260503211504 | 57 | 4 | 0.0 | 2.6 | 0.00 | 0.11 | 0.11 | 77 | 1014.0 |
| 20260503210003 | 58 | 6 | 0.0 | 4.3 | 0.00 | 0.11 | 0.11 | 74 | 1014.0 |
| 20260503204508 | 59 | 352 | 0.9 | 3.5 | 0.00 | 0.11 | 0.11 | 70 | 1013.9 |